This is the latest recevied weather packets stored in our database for station/object N0MPM-4. If no packets are shown the sender has not sent any weather packets the latest 10 day(s).
| Time | Temp. | Humidity | Pressure | Rain* | Wind** | Luminosity | Snow |
|---|---|---|---|---|---|---|---|
| 1777729201 | 10° C | 60% | 1021.9 hPa | 0 mm | - | - | - |
| 1777728901 | 10° C | 64% | 1021.9 hPa | 0 mm | - | - | - |
| 1777728601 | 8.89° C | 68% | 1021.8 hPa | 0 mm | - | - | - |
| 1777728301 | 8.33° C | 66% | 1021.9 hPa | 0 mm | - | - | - |
| 1777728001 | 8.33° C | 72% | 1021.9 hPa | 0 mm | - | - | - |
| 1777727701 | 7.22° C | 74% | 1021.8 hPa | 0 mm | - | - | - |
| 1777727401 | 6.67° C | 74% | 1021.9 hPa | 0 mm | - | - | - |
| 1777727101 | 5.56° C | 78% | 1021.9 hPa | 0 mm | - | - | - |
| 1777726801 | 5° C | 81% | 1021.9 hPa | 0 mm | - | - | - |
| 1777726501 | 3.89° C | 82% | 1021.9 hPa | 0 mm | - | - | - |
| 1777726201 | 3.33° C | 83% | 1021.8 hPa | 0 mm | - | - | - |
| 1777725901 | 2.22° C | 83% | 1021.8 hPa | 0 mm | - | - | - |
| 1777725601 | 1.67° C | 83% | 1021.8 hPa | 0 mm | - | - | - |
| 1777725301 | 1.67° C | 83% | 1021.7 hPa | 0 mm | - | - | - |
| 1777725001 | 1.67° C | 83% | 1021.7 hPa | 0 mm | - | - | - |
| 1777724701 | 1.11° C | 83% | 1021.7 hPa | 0 mm | - | - | - |
| 1777724401 | 1.11° C | 83% | 1021.7 hPa | 0 mm | - | - | - |
| 1777724102 | 1.11° C | 83% | 1021.6 hPa | 0 mm | - | - | - |
| 1777723801 | 0.56° C | 83% | 1021.6 hPa | 0 mm | - | - | - |
| 1777723502 | 0.56° C | 83% | 1021.4 hPa | 0 mm | - | - | - |
| 1777723202 | 0.56° C | 83% | 1021.4 hPa | 0 mm | - | - | - |
| 1777722902 | 0.56° C | 83% | 1021.3 hPa | 0 mm | - | - | - |
| 1777722602 | 0.56° C | 83% | 1021.3 hPa | 0 mm | - | - | - |
| 1777722302 | 0.56° C | 83% | 1021.2 hPa | 0 mm | - | - | - |
| 1777722002 | 0° C | 83% | 1021.1 hPa | 0 mm | - | - | - |
* Rain latest hour (hover to see other rain measurements)
** Current wind speed in m/s (hover to see current wind gust speed)